Showing default

GRUS-3ALPHA, 64579

Orbit data source: Space-Track

GRUS-3ALPHA, 64579 is a payload satellite owned by AXELSPACE (JP) in SSO that was launched on Mon, 23 Jun 2025 UTC via an FALCON 9 launch vehicle from the Air Force Western Test Range (AFWTR). Payload-class satellites include a variety of spacecraft equipped with specific instruments for various scientific and technological missions. These include communications satellites like Starlink; space stations such as the ISS; scientific satellites like the Hubble; Earth observation satellites from companies like Planet Labs, Umbra, and HawkEye 360; GPS; miniature CubeSats for education and research; and military/defense satellites.

Loading next visibility...
Identifier
64579, 2025-135BD
Orbit
SSO
Country
Flag of JPJP / JPN
Related business
Manufacturer
AXELSPACE
Mission
Operational Commercial Imaging
Bus & Motor
GRUS, Unknown motor
Mass
150 kg wet, 150 kg dry
Launch date (UTC)
2025-06-23 (10 months ago)
Launch vehicle
FALCON 9
Launch site
Air Force Western Test Range (AFWTR)
Object type
Payload
Rocket body
Debris
Shape & HBR
Box, 0.7 m
Radar Cross Section
1.360 m², Medium (>0.1 m² and < 1m²)

Expand to show TLE details & history
Last TLE update: 5 hours ago

TLE from 5 hours ago
0 GRUS-3ALPHA
1 64579U 25135BD  26120.17217069  .00001321  00000-0  13260-3 0  9993
2 64579  97.7704 235.0084 0003873 134.6381 225.5155 14.92989788 46714
Epoch: 2026-04-30T04:07Z
TLE epoch observation values (Epoch: 2026-04-30T04:07:55.547Z)
Latitude
-0°
Longitude
-45.09564°
Altitude
593.554 km
Speed
7.562 km/s
True Right ascension
15h 40m 02s
True Declination
0° 00' 00"
Sunlit
Object was in full shadow at epoch
Visualization orbit readout
Latitude
Unknown
Longitude
Unknown
Altitude
Unknown
Speed
Unknown
Apparent Right ascension
Unknown
Apparent Declination
Unknown
Sunlit
N/A
Visualization observer readout
Local Sidereal Time
16:38:37
Azimuth
Unknown
Elevation
Unknown
Doppler factor
Unknown
Orbital elements
Apogee altitude
588.334 km
Perigee altitude
582.94 km
Semi-major axis
6,963.774 km
Eccentricity
0.00039
Inclination
97.7704°
RAAN
235.0084°
Arg. of periapsis
134.6381°
True anomaly
225.48385°
Mean anomaly
225.5155°
Eccentric anomaly
225.49967°
Mean motion
3.73488 °/min
Orbital period
96.39 mins
BSTAR
0.0001326
Loading maneuver chart data...
Computing Atmospheric mass density...
Loading historical data...
Loading historical data...
Loading historical data...
Loading historical data...
Loading historical data...
Loading historical data...
Loading historical data...

Documentation

Showing up to 5 results
|